SCP
0 0 0 0 0 0 0 0 -0 -0 -0 0 0 0 0 0 0 0 0 1 1 1 0 0 0 0 0 0 0 0 0 1 1 0 0 0 0 0 0 0 0 1 0
0 0 0 0 0 0 0 0 0 -0 0 0 0 0 0 0 0 0 0 1 1 1 0 0 0 0 0 0 0 0 0 0 0 1 0 0 0 0 0 0 0 0 0
0 0 0 0 0 0 0 0 0 0 0 0 0 0 0 0 0 0 0 1 1 0 0 0 0 0 0 0 0 0 0 0 0 0 0 0 1 0 0 0 0 0 0
0 0 0 0 0 0 0 0 0 0 0 0 0 0 0 0 0 0 0 0 0 0 0 0 0 0 0 0 0 0 0 0 0 0 0 0 0 0 0 0 0 0 0
0 0 0 0 0 0 0 0 0 0 0 0 0 0 0 0 1 0 0 0 0 0 0 0 0 0 0 0 0 0 0 0 0 0 0 0 0 0 0 0 0 0 0
0 0 0 0 0 0 0 0 0 0 0 0 0 0 0 0 1 0 0 0 0 0 0 0 0 0 0 0 0 -0 0 0 0 0 0 0 0 0 0 0 0 0 0
0 0 0 0 0 0 0 0 0 0 0 0 0 0 0 0 1 0 0 0 0 0 0 0 0 0 0 0 0 0 0 0 -0 0 0 0 0 0 0 0 0 0 0
0 0 0 0 0 0 0 0 0 0 0 0 0 0 0 0 0 0 0 0 0 0 0 0 0 0 0 0 0 0 0 0 0 0 0 0 0 0 0 0 0 0 0
0 0 0 0 0 0 0 0 0 0 0 0 0 0 0 0 0 0 0 0 0 0 0 0 0 0 0 0 0 0 0 0 0 0 0 0 0 0 0 0 0 0 0
0 0 0 0 0 0 0 0 0 0 0 0 0 0 0 0 0 0 0 0 0 0 0 0 0 0 0 0 0 0 0 0 0 0 0 0 0 0 0 0 0 0 0
0 0 0 0 0 0 0 0 0 0 0 0 0 0 0 0 0 0 0 0 0 0 0 0 0 0 0 0 0 0 0 0 0 -0 0 0 0 0 0 0 0 0 0
-0 0 0 0 0 0 0 0 0 0 0 0 0 0 0 0 0 0 0 0 0 0 0 0 0 0 0 0 0 0 0 0 0 0 0 0 0 0 0 0 0 0 0
-0 0 -0 0 0 0 0 0 0 0 0 0 0 0 0 0 0 0 0 0 0 0 0 0 0 0 0 0 0 0 0 -0 -0 -0 -0 0 0 0 0 0 0 0 0
0 0 0 0 0 0 0 0 0 0 0 0 0 0 0 0 0 0 0 0 0 0 0 0 0 0 0 0 0 0 0 -0 0 0 -0 0 0 0 0 0 0 0 0
0 -0 0 0 0 0 0 0 0 0 0 0 0 0 0 0 0 0 0 0 0 0 0 0 0 0 0 0 0 0 0 -0 -0 -0 -0 -0 0 0 0 0 0 0 0
-0 -0 0 0 0 0 0 0 0 0 0 0 0 0 0 0 0 0 0 0 0 0 0 0 0 0 0 0 0 0 0 -0 -0 -0 -0 -0 0 0 0 0 0 0 0
0 0 0 0 0 0 1 0 0 0 0 0 0 0 0 0 0 0 0 0 0 0 0 0 0 0 0 0 0 0 0 -0 0 -0 -0 -0 -0 0 0 0 0 0 0
0 0 0 0 0 0 1 0 0 0 0 0 0 0 0 0 0 0 0 0 0 0 0 0 0 0 0 0 0 0 0 0 0 -0 -0 -0 -0 -0 0 0 0 0 -0
0 0 0 0 0 0 1 0 0 0 0 0 0 0 0 0 0 0 0 0 0 0 0 0 0 0 0 0 0 0 0 0 0 0 0 -0 -0 -0 0 -0 0 0 0
0 0 0 0 0 0 0 1 0 0 0 0 0 0 0 0 0 0 0 0 0 0 0 0 0 0 0 0 0 0 0 0 0 0 0 0 0 -0 0 0 0 0 0
0 0 0 0 0 0 0 1 0 0 0 0 0 0 0 0 0 0 0 0 0 0 0 0 0 0 0 0 0 0 0 0 0 0 0 0 0 0 0 0 0 0 0
0 0 0 0 0 0 0 0 0 0 0 0 0 0 0 0 0 0 0 0 0 0 0 0 0 0 0 0 0 0 0 0 0 0 0 0 0 0 0 0 0 0 0
0 0 0 0 0 0 0 0 0 0 0 0 0 0 0 0 0 0 0 0 0 0 0 0 0 0 0 0 0 0 0 0 0 0 0 0 0 0 0 0 0 0 0
0 0 0 0 0 0 0 0 0 0 0 0 0 0 0 0 0 0 0 0 0 0 0 0 0 0 0 0 0 0 0 0 0 0 0 0 0 0 0 0 0 0 0
0 0 1 0 0 0 0 0 0 0 0 0 0 0 0 0 0 0 0 0 0 0 0 0 0 0 0 0 0 0 0 -0 -0 0 0 0 0 0 0 0 0 0 0
-0 1 0 0 0 0 0 0 0 0 0 0 0 0 0 0 0 0 0 0 0 0 0 0 0 0 0 0 0 0 0 0 -0 -0 0 0 0 0 0 0 0 0 0
Wind_Speed_500mb
11 9 11 10 7 10 10 13 13 15 8 2 3 5 2 3 6 5 6 10 11 22 28 14 9 9 5 3 10 16 21 24 29 33 42 49 47 51 52 59 46 46 47
14 10 11 13 9 6 5 16 15 8 8 3 6 5 5 3 4 3 3 1 8 18 23 16 11 9 9 10 8 8 10 13 21 28 32 39 45 51 55 57 51 52 50
14 13 11 14 13 6 8 18 14 6 5 6 6 8 10 14 14 9 6 4 8 14 18 20 19 12 13 17 16 12 11 12 14 18 25 29 34 40 57 62 54 57 51
17 14 11 16 11 9 16 18 8 3 5 11 12 11 12 15 17 17 15 10 8 10 6 8 14 17 17 18 18 17 17 18 18 22 25 29 34 37 46 60 59 62 59
10 12 18 21 15 7 21 16 5 7 2 9 14 15 13 15 24 23 18 17 14 9 7 3 3 4 15 24 34 26 15 25 32 22 25 31 31 33 40 49 54 55 58
6 15 22 20 22 17 20 12 2 3 10 8 2 14 24 24 24 24 26 21 20 17 13 12 5 4 8 12 7 10 16 25 31 26 22 28 35 37 36 40 48 53 54
7 11 25 25 20 21 20 16 4 8 12 11 8 14 23 22 26 27 31 31 30 23 22 18 16 12 7 8 5 9 15 24 32 22 21 22 30 34 39 37 42 48 50
5 10 20 28 21 21 17 14 11 15 16 10 8 5 13 19 20 25 36 37 34 29 28 26 22 20 18 16 9 12 21 24 23 21 21 19 21 33 34 36 37 44 47
9 13 14 24 18 23 23 14 16 17 17 13 9 4 8 12 12 18 31 35 34 37 39 35 31 30 28 21 13 14 29 31 27 21 24 17 16 25 30 28 37 38 46
14 15 13 19 17 19 23 16 16 18 18 13 10 8 10 15 9 10 14 13 16 31 42 47 39 42 35 28 14 23 27 27 22 27 28 16 17 18 30 22 31 37 44
16 17 15 18 15 17 19 20 22 21 21 18 12 11 13 13 15 15 13 17 22 25 30 35 41 49 35 19 19 20 19 19 23 28 24 9 7 10 18 18 24 34 39
15 16 18 19 15 16 20 25 17 23 22 22 20 17 16 15 16 11 12 14 15 16 10 15 32 39 13 11 19 18 16 19 24 26 21 10 2 3 11 8 16 30 35
17 21 29 23 19 16 15 23 27 25 25 25 26 21 19 19 15 15 16 15 11 8 5 10 19 18 6 13 16 15 17 20 23 26 21 7 4 2 9 13 14 24 31
26 28 19 20 21 18 16 21 26 27 26 24 25 26 24 24 18 16 16 17 14 9 10 10 14 13 12 13 14 15 15 25 25 25 18 2 1 7 6 13 15 19 29
21 18 15 21 23 19 21 23 25 26 27 27 26 27 27 23 20 18 18 20 16 12 10 12 9 18 11 12 14 13 18 26 27 23 16 10 4 10 8 9 19 28 31
26 22 21 25 25 25 28 30 28 27 26 27 27 29 30 24 21 21 21 20 15 9 9 9 10 10 10 10 14 16 21 28 23 20 12 14 12 10 17 15 24 32 47
40 35 30 31 33 32 34 35 30 27 25 26 28 31 31 26 21 20 20 20 15 10 6 7 9 5 9 11 11 15 24 21 20 20 10 14 13 20 23 31 34 41 53
38 42 38 37 39 41 38 37 33 27 23 24 27 31 30 26 21 21 22 21 15 16 13 7 10 6 4 3 5 18 23 17 18 20 12 20 21 20 31 51 57 44 63
40 42 43 44 45 43 44 43 35 28 22 25 26 25 29 25 22 23 25 23 15 7 5 2 5 8 11 3 10 18 18 15 16 19 21 34 15 26 49 46 25 23 36
43 44 43 44 49 49 48 43 36 32 24 26 28 24 27 23 20 20 23 19 16 12 9 6 2 8 8 3 7 13 14 16 18 26 25 32 31 42 59 46 32 29 36
48 43 42 43 47 46 44 42 39 34 28 25 27 26 25 21 16 16 17 16 15 16 13 7 2 11 11 3 4 11 11 18 24 31 29 36 42 49 70 69 38 41 46
50 48 46 44 45 43 41 41 39 38 32 29 28 23 22 16 11 12 15 17 16 17 11 5 5 12 10 3 2 10 9 9 15 26 34 44 44 51 65 77 66 49 53
48 48 48 47 48 43 37 38 40 40 35 32 30 21 19 13 7 9 12 13 18 19 10 5 6 14 11 5 2 10 7 11 23 26 36 48 44 53 61 72 80 92 79
42 43 41 42 42 35 32 32 37 37 35 32 30 22 18 16 8 3 7 11 18 24 17 13 18 21 12 5 5 7 6 13 23 27 36 49 50 54 55 62 67 73 75
49 43 43 36 34 28 27 31 37 36 34 31 29 23 19 19 14 4 1 9 15 25 26 15 17 18 12 7 5 5 9 14 20 27 33 44 46 53 54 56 55 58 66
50 45 45 38 35 30 28 32 33 33 32 33 33 27 22 20 18 11 5 4 12 20 25 19 16 16 13 6 7 14 10 8 20 18 25 41 47 48 55 53 48 48 53
Wind_Direction_500mb
74 56 55 36 42 33 14 11 359 354 35 338 12 269 349 77 111 97 78 18 0 337 337 349 69 76 72 259 261 259 258 254 250 241 236 237 233 222 220 224 217 215 218
44 31 8 16 0 332 339 3 345 342 346 69 320 299 227 210 128 61 150 13 350 354 335 352 354 1 2 352 325 293 276 263 250 243 237 232 228 222 222 219 224 223 215
18 31 19 1 334 312 326 342 341 355 341 5 332 256 231 217 212 225 202 255 354 356 360 25 38 4 354 332 321 309 290 279 266 243 235 222 221 222 218 222 233 220 213
59 11 3 3 25 1 351 353 4 321 278 322 325 245 245 231 226 234 228 239 321 320 9 52 49 49 44 10 330 322 334 341 316 275 251 243 234 227 225 228 228 220 216
34 10 2 6 13 1 359 1 359 25 75 301 287 247 248 254 245 230 244 256 258 267 295 334 29 35 56 45 41 28 12 2 352 310 280 254 245 235 231 228 222 220 228
6 6 358 357 4 2 354 4 273 289 297 311 294 244 241 251 253 251 256 262 255 258 276 276 265 255 41 67 36 12 5 355 349 338 293 265 247 240 234 227 225 227 228
326 356 6 1 1 359 18 15 351 297 297 313 301 256 230 251 250 262 249 256 252 279 272 264 263 273 221 226 291 347 351 343 345 327 312 277 249 235 238 231 226 222 225
293 342 359 0 8 9 16 33 12 346 328 335 312 244 218 240 236 256 241 251 254 267 276 279 259 235 241 236 267 319 334 339 347 336 319 296 256 235 234 235 232 224 219
319 329 339 356 6 13 14 18 17 8 355 331 357 299 258 250 262 264 240 253 256 262 266 266 242 237 233 239 254 324 329 335 331 333 324 276 244 237 229 236 230 228 219
292 299 304 339 360 15 14 22 9 4 3 346 338 325 294 280 281 260 266 232 263 261 257 254 241 238 243 243 268 325 332 322 335 344 331 282 245 249 221 234 224 221 216
282 283 283 314 341 1 12 11 10 10 10 5 352 326 310 296 282 277 266 245 284 271 272 241 245 242 271 292 323 328 329 334 345 346 336 309 264 226 211 228 217 212 213
267 274 285 297 310 344 5 3 354 2 6 7 359 348 341 331 328 325 306 300 300 317 273 248 243 250 277 320 330 308 333 349 352 345 343 301 358 190 180 212 206 205 201
272 269 286 283 298 310 344 350 352 349 357 359 355 342 336 327 334 335 326 315 295 292 259 266 215 222 259 322 322 321 338 356 347 346 352 359 11 149 199 208 201 192 197
274 283 272 263 286 298 317 337 343 344 346 349 347 339 331 325 325 334 324 322 297 259 199 213 214 215 287 336 330 331 358 359 341 345 350 36 284 255 241 205 191 191 189
270 266 249 259 270 290 311 322 333 340 339 340 338 335 333 326 327 327 327 328 312 266 216 218 226 237 275 324 329 344 346 349 338 351 350 11 332 287 296 262 232 212 202
246 241 248 260 263 281 301 310 315 326 333 340 336 336 334 329 333 329 328 331 335 303 244 230 242 235 280 297 322 345 340 339 340 354 358 12 349 347 314 285 234 220 213
242 240 247 250 262 277 296 302 302 316 321 333 338 332 330 329 336 331 332 324 306 316 289 205 194 249 255 319 352 337 337 343 352 1 31 9 15 10 343 317 284 240 213
247 240 244 252 252 271 287 299 293 301 311 307 332 330 327 328 336 336 339 334 321 305 286 232 192 235 270 80 360 342 342 351 2 21 27 15 6 353 343 326 307 257 207
247 246 249 253 258 269 281 289 283 286 295 297 318 322 322 329 332 342 344 347 7 350 289 280 158 178 136 57 355 347 356 2 26 24 32 28 56 23 4 338 119 143 185
249 248 252 257 262 268 275 277 276 278 285 289 311 312 317 325 329 346 353 359 13 2 329 342 116 133 110 125 357 5 12 34 46 47 56 35 53 34 29 55 112 112 132
250 251 252 254 259 262 263 265 271 275 283 276 301 303 310 316 331 354 6 13 7 353 336 346 178 159 142 159 351 16 21 41 53 61 72 49 45 48 46 56 108 111 119
251 253 254 256 258 258 259 261 266 269 277 279 295 291 296 303 332 0 20 28 23 18 4 351 171 157 152 164 92 350 343 2 70 76 86 75 65 60 51 55 104 125 132
256 256 258 260 261 260 261 259 259 262 269 278 282 284 285 278 319 353 30 35 27 33 41 68 111 129 134 133 49 340 12 85 96 92 99 89 78 71 60 60 66 123 143
253 257 260 262 265 263 261 259 263 256 261 269 270 273 275 261 266 327 39 39 38 39 61 96 117 125 123 112 79 28 102 107 98 104 112 94 93 86 79 72 68 79 109
253 258 262 262 261 264 258 251 256 256 254 257 258 255 259 240 256 239 96 52 42 41 46 81 125 122 121 113 49 70 137 111 111 110 115 101 104 99 90 83 82 84 88
250 257 260 262 263 256 254 249 248 251 248 248 241 247 244 228 251 237 213 72 40 42 55 71 100 128 119 112 68 111 134 111 105 104 128 127 115 111 96 96 93 92 95
Wind_Speed_850mb
11 9 11 10 7 10 10 13 13 15 8 2 3 5 2 3 6 5 6 10 11 22 28 14 9 9 5 3 10 16 21 24 29 33 42 49 47 51 52 59 46 46 47
14 10 11 13 9 6 5 16 15 8 8 3 6 5 5 3 4 3 3 1 8 18 23 16 11 9 9 10 8 8 10 13 21 28 32 39 45 51 55 57 51 52 50
14 13 11 14 13 6 8 18 14 6 5 6 6 8 10 14 14 9 6 4 8 14 18 20 19 12 13 17 16 12 11 12 14 18 25 29 34 40 57 62 54 57 51
17 14 11 16 11 9 16 18 8 3 5 11 12 11 12 15 17 17 15 10 8 10 6 8 14 17 17 18 18 17 17 18 18 22 25 29 34 37 46 60 59 62 59
10 12 18 21 15 7 21 16 5 7 2 9 14 15 13 15 24 23 18 17 14 9 7 3 3 4 15 24 34 26 15 25 32 22 25 31 31 33 40 49 54 55 58
6 15 22 20 22 17 20 12 2 3 10 8 2 14 24 24 24 24 26 21 20 17 13 12 5 4 8 12 7 10 16 25 31 26 22 28 35 37 36 40 48 53 54
7 11 25 25 20 21 20 16 4 8 12 11 8 14 23 22 26 27 31 31 30 23 22 18 16 12 7 8 5 9 15 24 32 22 21 22 30 34 39 37 42 48 50
5 10 20 28 21 21 17 14 11 15 16 10 8 5 13 19 20 25 36 37 34 29 28 26 22 20 18 16 9 12 21 24 23 21 21 19 21 33 34 36 37 44 47
9 13 14 24 18 23 23 14 16 17 17 13 9 4 8 12 12 18 31 35 34 37 39 35 31 30 28 21 13 14 29 31 27 21 24 17 16 25 30 28 37 38 46
14 15 13 19 17 19 23 16 16 18 18 13 10 8 10 15 9 10 14 13 16 31 42 47 39 42 35 28 14 23 27 27 22 27 28 16 17 18 30 22 31 37 44
16 17 15 18 15 17 19 20 22 21 21 18 12 11 13 13 15 15 13 17 22 25 30 35 41 49 35 19 19 20 19 19 23 28 24 9 7 10 18 18 24 34 39
15 16 18 19 15 16 20 25 17 23 22 22 20 17 16 15 16 11 12 14 15 16 10 15 32 39 13 11 19 18 16 19 24 26 21 10 2 3 11 8 16 30 35
17 21 29 23 19 16 15 23 27 25 25 25 26 21 19 19 15 15 16 15 11 8 5 10 19 18 6 13 16 15 17 20 23 26 21 7 4 2 9 13 14 24 31
26 28 19 20 21 18 16 21 26 27 26 24 25 26 24 24 18 16 16 17 14 9 10 10 14 13 12 13 14 15 15 25 25 25 18 2 1 7 6 13 15 19 29
21 18 15 21 23 19 21 23 25 26 27 27 26 27 27 23 20 18 18 20 16 12 10 12 9 18 11 12 14 13 18 26 27 23 16 10 4 10 8 9 19 28 31
26 22 21 25 25 25 28 30 28 27 26 27 27 29 30 24 21 21 21 20 15 9 9 9 10 10 10 10 14 16 21 28 23 20 12 14 12 10 17 15 24 32 47
40 35 30 31 33 32 34 35 30 27 25 26 28 31 31 26 21 20 20 20 15 10 6 7 9 5 9 11 11 15 24 21 20 20 10 14 13 20 23 31 34 41 53
38 42 38 37 39 41 38 37 33 27 23 24 27 31 30 26 21 21 22 21 15 16 13 7 10 6 4 3 5 18 23 17 18 20 12 20 21 20 31 51 57 44 63
40 42 43 44 45 43 44 43 35 28 22 25 26 25 29 25 22 23 25 23 15 7 5 2 5 8 11 3 10 18 18 15 16 19 21 34 15 26 49 46 25 23 36
43 44 43 44 49 49 48 43 36 32 24 26 28 24 27 23 20 20 23 19 16 12 9 6 2 8 8 3 7 13 14 16 18 26 25 32 31 42 59 46 32 29 36
48 43 42 43 47 46 44 42 39 34 28 25 27 26 25 21 16 16 17 16 15 16 13 7 2 11 11 3 4 11 11 18 24 31 29 36 42 49 70 69 38 41 46
50 48 46 44 45 43 41 41 39 38 32 29 28 23 22 16 11 12 15 17 16 17 11 5 5 12 10 3 2 10 9 9 15 26 34 44 44 51 65 77 66 49 53
48 48 48 47 48 43 37 38 40 40 35 32 30 21 19 13 7 9 12 13 18 19 10 5 6 14 11 5 2 10 7 11 23 26 36 48 44 53 61 72 80 92 79
42 43 41 42 42 35 32 32 37 37 35 32 30 22 18 16 8 3 7 11 18 24 17 13 18 21 12 5 5 7 6 13 23 27 36 49 50 54 55 62 67 73 75
49 43 43 36 34 28 27 31 37 36 34 31 29 23 19 19 14 4 1 9 15 25 26 15 17 18 12 7 5 5 9 14 20 27 33 44 46 53 54 56 55 58 66
50 45 45 38 35 30 28 32 33 33 32 33 33 27 22 20 18 11 5 4 12 20 25 19 16 16 13 6 7 14 10 8 20 18 25 41 47 48 55 53 48 48 53
Wind_Direction_850mb
74 56 55 36 42 33 14 11 359 354 35 338 12 269 349 77 111 97 78 18 0 337 337 349 69 76 72 259 261 259 258 254 250 241 236 237 233 222 220 224 217 215 218
44 31 8 16 0 332 339 3 345 342 346 69 320 299 227 210 128 61 150 13 350 354 335 352 354 1 2 352 325 293 276 263 250 243 237 232 228 222 222 219 224 223 215
18 31 19 1 334 312 326 342 341 355 341 5 332 256 231 217 212 225 202 255 354 356 360 25 38 4 354 332 321 309 290 279 266 243 235 222 221 222 218 222 233 220 213
59 11 3 3 25 1 351 353 4 321 278 322 325 245 245 231 226 234 228 239 321 320 9 52 49 49 44 10 330 322 334 341 316 275 251 243 234 227 225 228 228 220 216
34 10 2 6 13 1 359 1 359 25 75 301 287 247 248 254 245 230 244 256 258 267 295 334 29 35 56 45 41 28 12 2 352 310 280 254 245 235 231 228 222 220 228
6 6 358 357 4 2 354 4 273 289 297 311 294 244 241 251 253 251 256 262 255 258 276 276 265 255 41 67 36 12 5 355 349 338 293 265 247 240 234 227 225 227 228
326 356 6 1 1 359 18 15 351 297 297 313 301 256 230 251 250 262 249 256 252 279 272 264 263 273 221 226 291 347 351 343 345 327 312 277 249 235 238 231 226 222 225
293 342 359 0 8 9 16 33 12 346 328 335 312 244 218 240 236 256 241 251 254 267 276 279 259 235 241 236 267 319 334 339 347 336 319 296 256 235 234 235 232 224 219
319 329 339 356 6 13 14 18 17 8 355 331 357 299 258 250 262 264 240 253 256 262 266 266 242 237 233 239 254 324 329 335 331 333 324 276 244 237 229 236 230 228 219
292 299 304 339 360 15 14 22 9 4 3 346 338 325 294 280 281 260 266 232 263 261 257 254 241 238 243 243 268 325 332 322 335 344 331 282 245 249 221 234 224 221 216
282 283 283 314 341 1 12 11 10 10 10 5 352 326 310 296 282 277 266 245 284 271 272 241 245 242 271 292 323 328 329 334 345 346 336 309 264 226 211 228 217 212 213
267 274 285 297 310 344 5 3 354 2 6 7 359 348 341 331 328 325 306 300 300 317 273 248 243 250 277 320 330 308 333 349 352 345 343 301 358 190 180 212 206 205 201
272 269 286 283 298 310 344 350 352 349 357 359 355 342 336 327 334 335 326 315 295 292 259 266 215 222 259 322 322 321 338 356 347 346 352 359 11 149 199 208 201 192 197
274 283 272 263 286 298 317 337 343 344 346 349 347 339 331 325 325 334 324 322 297 259 199 213 214 215 287 336 330 331 358 359 341 345 350 36 284 255 241 205 191 191 189
270 266 249 259 270 290 311 322 333 340 339 340 338 335 333 326 327 327 327 328 312 266 216 218 226 237 275 324 329 344 346 349 338 351 350 11 332 287 296 262 232 212 202
246 241 248 260 263 281 301 310 315 326 333 340 336 336 334 329 333 329 328 331 335 303 244 230 242 235 280 297 322 345 340 339 340 354 358 12 349 347 314 285 234 220 213
242 240 247 250 262 277 296 302 302 316 321 333 338 332 330 329 336 331 332 324 306 316 289 205 194 249 255 319 352 337 337 343 352 1 31 9 15 10 343 317 284 240 213
247 240 244 252 252 271 287 299 293 301 311 307 332 330 327 328 336 336 339 334 321 305 286 232 192 235 270 80 360 342 342 351 2 21 27 15 6 353 343 326 307 257 207
247 246 249 253 258 269 281 289 283 286 295 297 318 322 322 329 332 342 344 347 7 350 289 280 158 178 136 57 355 347 356 2 26 24 32 28 56 23 4 338 119 143 185
249 248 252 257 262 268 275 277 276 278 285 289 311 312 317 325 329 346 353 359 13 2 329 342 116 133 110 125 357 5 12 34 46 47 56 35 53 34 29 55 112 112 132
250 251 252 254 259 262 263 265 271 275 283 276 301 303 310 316 331 354 6 13 7 353 336 346 178 159 142 159 351 16 21 41 53 61 72 49 45 48 46 56 108 111 119
251 253 254 256 258 258 259 261 266 269 277 279 295 291 296 303 332 0 20 28 23 18 4 351 171 157 152 164 92 350 343 2 70 76 86 75 65 60 51 55 104 125 132
256 256 258 260 261 260 261 259 259 262 269 278 282 284 285 278 319 353 30 35 27 33 41 68 111 129 134 133 49 340 12 85 96 92 99 89 78 71 60 60 66 123 143
253 257 260 262 265 263 261 259 263 256 261 269 270 273 275 261 266 327 39 39 38 39 61 96 117 125 123 112 79 28 102 107 98 104 112 94 93 86 79 72 68 79 109
253 258 262 262 261 264 258 251 256 256 254 257 258 255 259 240 256 239 96 52 42 41 46 81 125 122 121 113 49 70 137 111 111 110 115 101 104 99 90 83 82 84 88
250 257 260 262 263 256 254 249 248 251 248 248 241 247 244 228 251 237 213 72 40 42 55 71 100 128 119 112 68 111 134 111 105 104 128 127 115 111 96 96 93 92 95